TimeMDT,TemperatureF,Dew PointF,Humidity,Sea Level PressureIn,VisibilityMPH,Wind Direction,Wind SpeedMPH,Gust SpeedMPH,PrecipitationIn,Events,Conditions,WindDirDegrees,DateUTC
12:53 AM,66.2,41.0,40,30.07,10.0,SE,13.8,-,N/A,,Clear,140,2011-10-03 06:53:00
1:53 AM,66.0,42.1,42,29.92,10.0,SE,13.8,-,N/A,,Clear,140,2011-10-03 07:53:00
2:53 AM,68.0,41.0,37,29.92,10.0,SE,13.8,-,N/A,,Clear,140,2011-10-03 08:53:00
3:53 AM,66.0,43.0,43,29.91,10.0,SE,13.8,-,N/A,,Clear,140,2011-10-03 09:53:00
4:53 AM,66.0,43.0,43,29.91,10.0,SSE,12.7,-,N/A,,Clear,150,2011-10-03 10:53:00
5:53 AM,66.9,42.1,40,29.92,10.0,SE,15.0,-,N/A,,Clear,140,2011-10-03 11:53:00
6:53 AM,64.0,44.1,48,29.94,10.0,SSE,13.8,-,N/A,,Partly Cloudy,160,2011-10-03 12:53:00
7:53 AM,64.4,42.8,45,30.10,10.0,SE,9.2,-,N/A,,Scattered Clouds,140,2011-10-03 13:53:00
8:53 AM,66.2,44.6,46,30.10,10.0,SE,11.5,-,N/A,,Scattered Clouds,140,2011-10-03 14:53:00
9:53 AM,72.0,44.1,37,29.96,10.0,SSE,13.8,-,N/A,,Scattered Clouds,160,2011-10-03 15:53:00
10:53 AM,75.9,43.0,31,29.94,10.0,South,16.1,-,N/A,,Scattered Clouds,170,2011-10-03 16:53:00
11:53 AM,75.2,44.6,34,30.07,10.0,SSE,10.4,-,N/A,,Scattered Clouds,150,2011-10-03 17:53:00
12:53 PM,81.0,41.0,24,29.88,10.0,South,18.4,24.2,N/A,,Scattered Clouds,170,2011-10-03 18:53:00
1:53 PM,82.9,39.0,21,29.84,10.0,SSE,17.3,25.3,N/A,,Scattered Clouds,150,2011-10-03 19:53:00
2:53 PM,82.9,37.0,19,29.81,10.0,South,17.3,24.2,N/A,,Scattered Clouds,170,2011-10-03 20:53:00
3:53 PM,82.9,37.0,19,29.79,10.0,South,13.8,-,N/A,,Scattered Clouds,170,2011-10-03 21:53:00
4:53 PM,82.0,37.0,20,29.78,10.0,SSE,16.1,24.2,N/A,,Mostly Cloudy,160,2011-10-03 22:53:00
5:53 PM,80.1,41.0,25,29.76,10.0,South,12.7,-,N/A,,Mostly Cloudy,180,2011-10-03 23:53:00
6:53 PM,78.1,42.1,28,29.78,10.0,South,12.7,-,N/A,,Mostly Cloudy,190,2011-10-04 00:53:00
7:53 PM,71.1,44.1,38,29.83,10.0,South,9.2,-,N/A,,Mostly Cloudy,190,2011-10-04 01:53:00
8:53 PM,69.1,45.0,42,29.84,10.0,Calm,Calm,-,N/A,,Mostly Cloudy,0,2011-10-04 02:53:00
9:53 PM,69.8,44.6,40,29.98,10.0,SSE,9.2,-,N/A,,Mostly Cloudy,150,2011-10-04 03:53:00
10:53 PM,69.1,46.0,44,29.83,10.0,South,15.0,-,N/A,,Mostly Cloudy,170,2011-10-04 04:53:00
11:53 PM,68.0,46.9,47,29.83,10.0,South,12.7,-,N/A,,Mostly Cloudy,180,2011-10-04 05:53:00